Regional Weather Roundup
Issued by NWS

Home | Current Version | Previous Version | Text Only | Print | Product List | Glossary On
Versions: 1 2 3 4 5 6 7 8 9 10 11 12 13 14 15 16 17 18 19 20 21 22 23 24 25 26 27
000
ASUS42 KTBW 192018
RWRFL
FLORIDA REGIONAL WEATHER ROUNDUP
NATIONAL WEATHER SERVICE TAMPA BAY RUSKIN FL
400 PM EDT THU OCT 19 2017

NOTE: "FAIR" INDICATES FEW OR NO CLOUDS BELOW 12,000 FEET WITH NO
SIGNIFICANT WEATHER AND/OR OBSTRUCTIONS TO VISIBILITY.

FLZ001>010-012>015-112-114-115-192100-
PANHANDLE FLORIDA

CITY           SKY/WX    TMP DP  RH WIND       PRES   REMARKS
PENSACOLA      FAIR      83  59  44 NE6       30.14F
PENSACOLA NAS  FAIR      83  58  42 NE12      30.14F
MILTON NAS     FAIR      80  60  50 NE8       30.16
CRESTVIEW      FAIR      83  57  41 VRB6      30.16F
DUKE FIELD     MOSUNNY   81  55  39 N9        30.14F
VALPARAISO     MOSUNNY   83  54  36 NE8       30.14F
MARY ESTHER    MOSUNNY   82  56  40 NE10      30.13F
PANAMA CITY    FAIR      83  55  38 N14       30.13F
TYNDALL AFB    FAIR      83  57  40 NE8       30.12F
APALACHICOLA   PTSUNNY   83  65  54 E10G17    30.11F

STATION/POSITION SKY/WX   TEMP    WIND        PRES    WAVE   SWELL
                          AIR SEA DIR/SP/G            HT/PER HT/PER
                          (F)     (DEG/KT/KT) (MB)    (FT/S) (FT/S)
30.1N   87.6W              75 80   60/ 12/ 14 1020.4F   4/ 6   2/ 6
29.2N   88.2W              78 82   70/ 17/ 21 1020.0
28.8N   86.0W              78 81   60/ 16/ 19 1019.1F   5/ 6
PANAMA CITY BEAC           81 78   80/  7/ 13 1020.6F
TOWER C                    76      60/ 17/ 18 1020.3F
28.5N   84.5W              77 81   40/ 17/ 19 1018.4F   4/ 6

$$
FLZ011-016>038-118-127-128-134-139-239-192100-
NORTH FLORIDA

CITY           SKY/WX    TMP DP  RH WIND       PRES   REMARKS
MARIANNA       FAIR      84  52  33 NE13G18   30.14F
TALLAHASSEE    FAIR      84  60  44 VRB6      30.13F
LIVE OAK       MOSUNNY   84  64  51 NE6G13    30.14F
CROSS CITY     CLOUDY    84  66  54 NE9       30.15S
LAKE CITY      FAIR      79  66  65 NE8G16    30.13F
GAINESVILLE    FAIR      82  67  60 NE20      30.13F
WILLISTON      SUNNY     82  72  69 CALM      30.11S
PALATKA        PTSUNNY   79  72  78 NE16      30.12S
MAYPORT NAS    FAIR      78  71  79 N17G26    30.14F
JACKSONVILLE   PTSUNNY   82  66  58 NE17G26   30.14F
JAX NAS        PTSUNNY   79  68  69 NE16      30.15S
JAX CECIL      PTSUNNY   81  68  65 NE15      30.14S
ST AUGUSTINE   CLOUDY    78  71  79 N17G28    30.13S HAZE

STATION/POSITION SKY/WX   TEMP    WIND        PRES    WAVE   SWELL
                          AIR SEA DIR/SP/G            HT/PER HT/PER
                          (F)     (DEG/KT/KT) (MB)    (FT/S) (FT/S)
SHELL POINT      NOT AVBL
KEATON BEACH               81      50/ 11/ 14 1019.1F
CEDAR KEY                  79      50/ 13/ 16 1019.3F
FERNANDINA                 75 75   10/ 11/ 15 1022.0F
30.7N   81.3W                 77                N/A     6/ 9
MAYPORT                    75 77   30/ 18/ 23 1021.1F
31.4N   80.9W              74 77   50/ 17/ 21 1020.8F   6/ 9   3/ 9
ST AUGUSTINE               77 79   20/ 25/ 28 1019.9F

$$
FLZ040-043>046-052-053-057-058-063-144-192100-
INTERIOR CENTRAL FLORIDA

CITY           SKY/WX    TMP DP  RH WIND       PRES   REMARKS
OCALA          FAIR      81  73  78 N9        30.10F
THE VILLAGES     N/A     79  75  89 CALM      29.99S
LEESBURG       FAIR      84  73  69 N13       30.08F
SANFORD        FAIR      85  69  58 NE14      30.06F
ORLANDO EXEC   SUNNY     86  66  51 E20       30.05F
ORLANDO INTL   FAIR      85  68  56 NE20      30.04F
KISSIMMEE      FAIR      85  68  56 E16G24    30.05F
WINTER HAVEN     N/A    N/A N/A N/A MISG      30.05S
LAKELAND       MOSUNNY   82  70  65 NE13      30.04F
BARTOW         MOSUNNY   82  68  61 NE17      30.04S
SEBRING        FAIR      88  71  56 E20       30.02S
OKEECHOBEE     FAIR      84  72  65 NE12G18   30.00S

$$
FLZ041-047-054-059-064-141-147-192100-
EAST CENTRAL FLORIDA

CITY           SKY/WX    TMP DP  RH WIND       PRES   REMARKS
ORMOND BEACH   PTSUNNY   81  72  74 N17G24    30.10R
DAYTONA BEACH  FAIR      83  74  74 NE17      30.09S
DELAND         PTSUNNY   82  68  61 NE12G20   30.08R
NEW SMYRNA BEA MOSUNNY   84  72  65 NE15G23   30.10S
JFK SPACE CTR  FAIR      84  76  78 NE12      30.05F
TITUSVILLE     MOSUNNY   86  72  62 NE21      30.07S
CAPE CANAVERAL FAIR      84  71  66 NE13      30.04F
PATRICK AFB    FAIR      82  73  73 NE20      30.04S
MELBOURNE      FAIR      82  72  71 NE14      30.04S
VERO BEACH     FAIR      83  71  67 NE17      30.03S
FT PIERCE      FAIR      81  72  74 VRB7      30.02S
STUART         SHOWER    82  75  78 NE14G23   30.02S

STATION/POSITION SKY/WX   TEMP    WIND        PRES    WAVE   SWELL
                          AIR SEA DIR/SP/G            HT/PER HT/PER
                          (F)     (DEG/KT/KT) (MB)    (FT/S) (FT/S)
28.5N   80.2W              81 82   50/ 17/ 21 1017.3F   7/ 9   5/ 9
TRIDENT PIER               83 81   30/ 11/ 19 1019.3F
28.4N   80.5W                 81                N/A     4/ 9
27.5N   80.2W                 81                N/A     5/ 9   2/11

$$
FLZ050-056-061-142-242-148-248-149-249-151-251-155-255-
160-260-192100-
WEST CENTRAL FLORIDA

CITY           SKY/WX    TMP DP  RH WIND       PRES   REMARKS
CRYSTAL RIVER  PTSUNNY   81  68  65 NE17G25   30.09R
INVERNESS      PTSUNNY   82  72  69 N17       30.09R
BROOKSVILLE    FAIR      86  69  56 N16       30.06F
CLEARWATER AIR FAIR      84  68  58 NE8       30.03F
ST PETE CLEARW FAIR      85  71  63 N9        30.03F
TAMPA INTL     FAIR      87  68  52 NE8       30.04F
TAMPA EXEC     PTSUNNY   86  73  66 NE6       30.04F
PLANT CITY     PTSUNNY   84  70  61 NE12G17   30.05F
MACDILL AFB    MOSUNNY   88  68  51 NE9G16    30.03F
PETER O KNIGHT PTSUNNY   82  70  65 NE12G20   30.03F
ST PETERSBURG  FAIR      86  70  58 NE14      30.01F
SARASOTA       FAIR      89  69  51 NE14      29.99F
VENICE         FAIR      90  70  51 NE15G21   29.99F HX  95

STATION/POSITION SKY/WX   TEMP    WIND        PRES    WAVE   SWELL
                          AIR SEA DIR/SP/G            HT/PER HT/PER
                          (F)     (DEG/KT/KT) (MB)    (FT/S) (FT/S)
CLEARWATER BEACH           79 79  350/ 17/ 19 1017.3F
MIDDLE TAMPA BAY           82      30/ 11/ 12 1016.7F
VENICE                     87 82   20/ 11/ 13 1015.6F

$$
FLZ066-069-070-075>078-162-262-165-265-192100-
SOUTHWEST FLORIDA AND KEYS

CITY           SKY/WX    TMP DP  RH WIND       PRES   REMARKS
PUNTA GORDA    FAIR      90  69  50 NE14G23   30.00S
FT MYERS       FAIR      88  71  57 E12G18    29.97S
SOUTHWEST INTL FAIR      89  72  56 E15G24    29.97F HX  96
NAPLES         FAIR      84  72  67 NE10      29.97S
MARCO ISLAND     N/A     87  73  62 NE8       29.97F
IMMOKALEE      FAIR      90  73  58 NE13      29.98F HX  98
MARATHON       FAIR      85  73  67 NE8       29.95F
KEY WEST NAS   FAIR      85  78  80 NE8       29.96F HX  96
KEY WEST INTL  FAIR      86  76  71 N10       29.96F HX  96

STATION/POSITION SKY/WX   TEMP    WIND        PRES    WAVE   SWELL
                          AIR SEA DIR/SP/G            HT/PER HT/PER
                          (F)     (DEG/KT/KT) (MB)    (FT/S) (FT/S)
NAPLES                        83   60/  8/ 11 1014.9F
DRY TORTUGAS               81      30/ 10/ 11 1014.9F
SAND KEY                   80                 1015.2F
MOLASSES REEF              82 84   90/ 10/ 11 1014.7F

$$
FLZ067-068-071>074-168-172>174-192100-
SOUTHEAST FLORIDA

CITY           SKY/WX    TMP DP  RH WIND       PRES   REMARKS
W PALM BEACH   PTSUNNY   83  73  72 NE13      30.00S
BOCA RATON     MOSUNNY   84  73  70 NE14      29.98F
FT LAUDER-EXEC FAIR      83  75  77 NE10      29.98S
FT LAUDERDALE  FAIR      85  76  74 NE10      29.97S
POMPANO BEACH  PTSUNNY   85  32  15 NE18      29.98S
PEMBROKE PINES FAIR      87  72  60 NE15      29.98F
OPA LOCKA      FAIR      87  73  62 E15       29.97F
MIAMI          PTSUNNY   86  73  65 NE10      29.97S
WEST KENDALL   RAIN      83  73  72 E14       29.96F
HOMESTEAD      FAIR      85  79  80 NE13      29.95F HX  98

STATION/POSITION SKY/WX   TEMP    WIND        PRES    WAVE   SWELL
                          AIR SEA DIR/SP/G            HT/PER HT/PER
                          (F)     (DEG/KT/KT) (MB)    (FT/S) (FT/S)
PORT EVERGLADES            83      60/ 11/ 14 1015.0F
VIRGINIA KEY               83 84   30/  8/ 12 1014.6F
LAKE WORTH                 82 83   40/ 13/ 15 1016.6F
FOWEY ROCKS                82 83   60/ 15/ 17 1015.3F
SETTLEMENT POINT           82      50/ 15/ 17 1015.8F

$$





USA.gov is the U.S. government's official web portal to all federal, state and local government web resources and services.